sat.trackr.live / text

‹ back to catalog

STARLINK-31438

NORAD 59234 · 2024-049D

PAYLOAD ACTIVE UNKNOWN

§ Identity

Operator
Country
US
Launch date
2024-03-16
Launch site
AFETR
Launch vehicle
Mass (kg)
RCS (m²)

Purposes: comms

External: N2YO · Heavens-Above · Gunter

§ Orbital elements

Epoch: 2026-05-25T03:05:05.595072Z

Period
94.27 min
Inclination
43.0012°
Eccentricity
0.0000882
Mean motion
15.27581804 rev/d
Perigee alt
482.4 km
Apogee alt
483.6 km
Semi-major
6,861.2 km
B*
2.0271e-5
RAAN
60.8444°
Arg perigee
271.7151°
Mean anomaly
88.3600°
Rev number
12,421

§ Raw data

STARLINK-314381 59234U 24049D   26145.12853698  .00000296  00000+0  20271-4 0  99942 59234  43.0012  60.8444 0000882 271.7151  88.3600 15.27581804124219

JSON: /api/v1/satellites/59234 · /tle

For live sub-satellite position, see the globe view (requires WebGL).

§ Visibility from observer

Set your observer location to see the next 7 days of passes ≥ 10°. The values pass through the URL so the page stays shareable.

No JS? Fill the form by hand. The geolocation button needs JavaScript.